Regional Weather Roundup
Issued by NWS

Home | Current Version | Previous Version | Text Only | Print | Product List | Glossary Off
Versions: 1 2 3 4 5 6 7 8 9 10 11 12 13 14 15 16 17 18 19 20 21 22 23 24 25 26 27 28 29 30 31 32 33 34 35 36 37 38 39 40 41 42 43 44 45 46 47 48 49 50

000
ASUS44 KMEG 230510
RWRTN
TENNESSEE HOURLY STATE WEATHER ROUNDUP
NATIONAL WEATHER SERVICE MEMPHIS TN
1200 AM CDT THU MAR 23 2017

TNZ002-004-019-021-049-052-054-088>092-230600-
WEST TENNESSEE

CITY           SKY/WX    TMP DP  RH WIND       PRES   REMARKS
MEMPHIS INTL   CLEAR     56  28  33 E10       30.29S
NWS MEMPHIS      N/A     51 N/A N/A MISG        N/A
JACKSON        CLEAR     50  25  37 E8        30.29F
DYERSBURG      PTCLDY    48  29  47 E6        30.32S
SOMERVILLE     CLOUDY    52  27  37 VRB3      30.27F
BOLIVAR        PTCLDY    50  25  37 NE7       30.28S
PARIS          CLEAR     43  21  42 E6        30.34S
HUNTINGDON     CLOUDY    45  25  45 E6        30.31F
SAVANNAH       CLEAR     48  25  40 E7        30.29S
$$

TNZ008-025-027-028-033-062-065-066-230600-
NORTH MIDDLE TENNESSEE

CITY           SKY/WX    TMP DP  RH WIND       PRES   REMARKS
NASHVILLE      CLOUDY    45  21  38 NE9       30.35F
PORTLAND       CLEAR     41  21  45 NE7       30.36F
CLARKSVILLE    CLEAR     43  21  41 E10       30.35F
COOKEVILLE     CLEAR     41  23  48 CALM      30.33S
GALLATIN       CLEAR     43  21  42 NE5       30.38F
CROSSVILLE     CLOUDY    40  19  43 NE7       30.33S
$$

TNZ061-075-076-078-094-096-097-230600-
SOUTH MIDDLE TENNESSEE

CITY           SKY/WX    TMP DP  RH WIND       PRES   REMARKS
FAYETTEVILLE   CLEAR     46  23  39 NE9       30.31R
TULLAHOMA      CLEAR     45  16  31 NE5       30.32F
WINCHESTER     CLEAR     41  27  56 CALM      30.31F
MCMINNVILLE    CLEAR     41  23  48 NE7       30.33S
COLUMBIA       CLEAR     43  25  49 NE5       30.31S
SHELBYVILLE    CLEAR     41  30  65 CALM      30.34S
$$

TNZ017-018-042-046-047-230600-
NORTHEAST TENNESSEE

CITY           SKY/WX    TMP DP  RH WIND       PRES   REMARKS
TRI CITIES     CLEAR     36  20  52 NE3       30.37R
$$

TNZ012-013-036-069-073-074-230600-
CENTRAL EAST TENNESSEE

CITY           SKY/WX    TMP DP  RH WIND       PRES   REMARKS
KNOXVILLE      PTCLDY    45  21  38 NE8       30.33R
OAK RIDGE      PTCLDY    47  16  29 VRB5      30.36S
DOWNTOWN KNOXV PTCLDY    46  23  39 CALM      30.35S
GATLINBURG     CLEAR     43  19  39 E5        30.33S
MORRISTOWN     CLEAR     43  16  33 E8        30.34S
JACKSBORO      CLEAR     39  25  56 CALM      30.39S
$$

TNZ083-085-099-230600-
SOUTHEAST TENNESSEE

CITY           SKY/WX    TMP DP  RH WIND       PRES   REMARKS
CHATTANOOGA    CLOUDY    50  25  37 N7        30.31F
$$

SKY/WX REPORTED AS FAIR MEANS FEW OR NO CLOUDS BELOW
12 THOUSAND FEET.




USA.gov is the U.S. government's official web portal to all federal, state and local government web resources and services.